Home   Weather   Weno   Past weeks
Flag for Micronesia

Past Weather in Weno, Chuuk, Micronesia — Yesterday and Last 2 Weeks

Now
81 °F

Cloudy.


Feels Like: 89 °F
Forecast: 88 / 79 °F
Wind: 5 mph from North

Location: Truk Intl / Moen Island

Current Time: Oct 16, 2019 at 12:51:10 pm

Latest Report: Oct 16, 2019 at 11:50 am


Visibility: 15 mi

Pressure: 29.80 "Hg

Humidity: 89%

Dew Point: 78 °F

Location of WenoLocation

Past Weather in Weno — Graph

°F

Weno Temperature Yesterday

Maximum temperature yesterday: 86 °F (at 2:50 pm)
Minimum temperature yesterday: 79 °F (at 9:54 pm)
Average temperature yesterday: 83 °F

High & Low Weather Summary for the Past Weeks

 TemperatureHumidityPressure
High90 °F (Oct 3, 12:51 pm)100% (Oct 2, 2:16 pm)29.89 "Hg (Oct 2, 2:16 pm)
Low75 °F (Oct 11, 9:25 am)74% (Oct 2, 9:50 am)29.68 "Hg (Oct 11, 3:50 pm)
Average83 °F87%29.79 "Hg
* Reported Oct 1 10:55 am — Oct 16 10:50 am, Weno. Weather by CustomWeather, © 2019

Note: Actual official high and low records may vary slightly from our data, if they occured in-between our weather recording intervals... More about our weather records

Advertising

Weno Weather History for the Previous 24 Hours

Scroll right to see more
 ConditionsComfort  
Time TempWeatherWind HumidityBarometerVisibility
10:50 am
Wed, Oct 16
80 °FCloudy.7 mph93%29.83 "Hg15 mi
9:50 am82 °FCloudy.8 mph87%29.85 "Hg15 mi
8:55 am81 °FCloudy.8 mph89%29.86 "Hg15 mi
7:54 am81 °FCloudy.8 mph90%29.85 "Hg15 mi
6:51 am80 °FMostly cloudy.9 mph92%29.83 "Hg15 mi
5:55 am80 °FSprinkles. Cloudy.10 mph93%29.80 "Hg14 mi
4:53 am81 °FMostly cloudy.10 mph90%29.78 "Hg15 mi
3:52 am81 °FSprinkles. Mostly cloudy.10 mph93%29.76 "Hg14 mi
2:51 am80 °FMostly cloudy.8 mph92%29.76 "Hg15 mi
1:52 am79 °FMostly cloudy.6 mph93%29.78 "Hg15 mi
12:51 am80 °FSprinkles. Partly cloudy.12 mph96%29.78 "Hg13 mi
11:52 pm
Tue, Oct 15
82 °FMostly cloudy.3 mph91%29.80 "Hg15 mi
10:52 pm82 °FMostly cloudy.5 mph89%29.81 "Hg15 mi
9:54 pm79 °FMostly cloudy.6 mph98%29.83 "Hg15 mi
8:52 pm82 °FMostly cloudy.6 mph89%29.83 "Hg15 mi
7:50 pm81 °FMostly cloudy.7 mph90%29.81 "Hg15 mi
6:51 pm79 °FSprinkles. Mostly cloudy.5 mph96%29.79 "Hg12 mi
5:50 pm80 °FMostly cloudy.6 mph91%29.78 "Hg15 mi
4:50 pm84 °FScattered showers. Cloudy.9 mph82%29.76 "Hg15 mi
3:50 pm85 °FCloudy.8 mph83%29.74 "Hg15 mi
2:50 pm86 °FCloudy.9 mph83%29.74 "Hg15 mi
1:50 pm86 °FMore clouds than sun.7 mph89%29.76 "Hg15 mi
12:50 pm83 °FMostly cloudy.7 mph85%29.78 "Hg15 mi
Weather by CustomWeather, © 2019

See weather overview